User: anonymous   Login
Location: Huntsville
(41.2590°N, 111.7678°W)
Time: 07:30:57
(UTC+00:00)
Language:

Transit 4A - Orbit

View from above orbital plane
View from above orbital plane
View from above satellite
View from above satellite

Ground track
Ground track

The orbit data is extracted from the following two-line orbital elements,

1 00116U 61015A   22267.58799508  .00000013  00000-0  68938-4 0  9993
2 00116  66.8119 341.2030 0072573 152.5684 207.9257 13.91846317107181
Epoch (UTC): 24 September 2022 14:06:42
Eccentricity: 0.0072573
inclination: 66.8119°
perigee height: 869 km
apogee height: 975 km
right ascension of ascending node: 341.2030°
argument of perigee: 152.5684°
revolutions per day: 13.91846317
mean anomaly at epoch: 207.9257°
orbit number at epoch: 10718

The dashed part of the orbit path shows where the satellite is in the earth's shadow,  

DLR